ECHOSTAR 21 (42749 NORAD) Tracking and Keplerian Element Data

This shows tracking and keplerian element data for the satellite.

Feedback or suggestion? Click here.




ElementValue
Catalog42749
NameECHOSTAR 21
Epoch Orbit479
Epoch Day265.84599593
Epoch Year2018
RAAN316.5427
Inclination6.7095
Eccentricity0.0002559
Argument of Perigee226.8528
Mean Anonmoly133.0731
Mean Motion1.00273095
Decay Rate4.7E-07
L11 42749U 17032A 18265.84599593 .00000047 00000-0 00000-0 0 9994
L22 42749 6.7095 316.5427 0002559 226.8528 133.0731 1.00273095 4792

Live tracking and technical data element details for ECHOSTAR 21 (NORAD 42749). ECHOSTAR 21 can be tracked NOW for your location showing map with azimuth and elevation plus other details from your city location.

Track the satellite on the map from your city or location and see movement details for azimuth, elevation, latitude, longitude, range, height, and movement on the map or in text.







IsCatalogInMostPopularTable: catalog: 42749, numindb: 118
Update: records affected: 1



GetName: 42749 ECHOSTAR 21

Hit Count: updated at: Tue, 25 Sep 2018 15:46:43 GMT